Location: Cortos
(40.7190°N, 4.5893°W)
Time: 09:38:39
(UTC+00:00)

Cosmos 1602 Rocket - Pass Details

Date: 05 July 2020
Orbit: 604 x 633 km, 82.5° (Epoch: 07 August)

Event Time Altitude Azimuth Distance (km) Brightness Sun altitude
Rises 20:20:56 0° 172° (S) 2,875 6.6 -5.3°
Reaches altitude 10° 20:23:12 10° 167° (SSE) 1,979 5.7 -5.6°
Maximum altitude 20:27:25 48° 93° (E) 817 3.9 -6.3°
Drops below altitude 10° 20:31:42 10° 19° (NNE) 2,011 6.4 -6.9°
Sets 20:34:00 0° 14° (NNE) 2,927 7.4 -7.3°
